Ypsilanti, MI

4:54 AM EDT on July 26, 2017 (GMT -0400)
Willow Run

Weather History for KYIP - November, 2012

Change the Weather History Date:

Wednesday, November 14, 2012

  Actual Average Record
Temperature  
Mean Temperature 32 °F -  
Max Temperature 42 °F 46 °F 69 °F (1989)
Min Temperature 21 °F 32 °F 12 °F (1986)
Degree Days  
Heating Degree Days 34    
Moisture  
Dew Point 23 °F    
Average Humidity 69    
Maximum Humidity 84    
Minimum Humidity 51    
Precipitation  
Precipitation 0.00 in - - ()
Sea Level Pressure  
Sea Level Pressure 30.54 in    
Wind  
Wind Speed 1 mph (ESE)    
Max Wind Speed 8 mph    
Max Gust Speed -    
Visibility 10 miles    
Events      
Averages and records for this station are not official NWS values.
T = Trace of Precipitation, MM = Missing Value Source: NWS Daily Summary

Daily Weather History Graph

Daily Weather History Graph

Search for Another Location

Airport or City:

Trip Planner

Search our weather history database for the weather conditions in past years. The results will help you decide how hot, cold, wet, or windy it might be!

Date:

Astronomy

Nov. 14, 2012 Rise Set
Actual Time 7:23 AM EST 5:12 PM EST
Civil Twilight 6:53 AM EST 5:42 PM EST
Nautical Twilight 6:19 AM EST 6:16 PM EST
Astronomical Twilight 5:46 AM EST 6:49 PM EST
Moon 8:13 AM EST (11/14) 5:59 PM EST (11/14)
Length of Visible Light 10h 49m
Length of Day
9h 48m
New Moon, 1% of the Moon is Illuminated
Nov 14
New Moon
Nov 20
First Quarter
Nov 28
Full
Dec 6
Last Quarter
Dec 13
New

Hourly Weather History & Observations

Time (EST) Temp. Windchill Dew Point Humidity Pressure Visibility Wind Dir Wind Speed Gust Speed Precip Events Conditions
12:53 AM 26.1 °F - 19.9 °F 78% 30.56 in 10.0 mi Calm Calm - N/A   Clear
1:53 AM 25.0 °F - 19.0 °F 78% 30.57 in 10.0 mi Calm Calm - N/A   Clear
2:53 AM 24.1 °F - 19.9 °F 84% 30.58 in 10.0 mi Calm Calm - N/A   Clear
3:53 AM 24.1 °F - 19.0 °F 81% 30.58 in 10.0 mi Calm Calm - N/A   Clear
4:53 AM 23.0 °F - 18.0 °F 81% 30.59 in 10.0 mi Calm Calm - N/A   Clear
6:53 AM 21.9 °F - 16.0 °F 78% 30.60 in 10.0 mi Calm Calm - N/A   Clear
7:53 AM 23.0 °F - 17.1 °F 78% 30.61 in 10.0 mi Calm Calm - N/A   Clear
8:53 AM 30.0 °F - 23.0 °F 75% 30.61 in 8.0 mi Calm Calm - N/A   Clear
9:53 AM 34.0 °F 31.0 °F 24.1 °F 67% 30.61 in 9.0 mi ENE 3.5 mph - N/A   Clear
10:53 AM 39.0 °F - 23.0 °F 53% 30.61 in 10.0 mi Calm Calm - N/A   Clear
11:53 AM 39.9 °F 36.7 °F 24.1 °F 53% 30.58 in 10.0 mi SSE 4.6 mph - N/A   Clear
12:53 PM 41.0 °F - 24.1 °F 51% 30.57 in 10.0 mi Calm Calm - N/A   Clear
1:53 PM 42.1 °F 39.2 °F 25.0 °F 51% 30.55 in 10.0 mi SSE 4.6 mph - N/A   Mostly Cloudy
2:53 PM 42.1 °F 37.1 °F 26.1 °F 53% 30.52 in 10.0 mi SSE 8.1 mph - N/A   Mostly Cloudy
3:53 PM 42.1 °F 38.4 °F 26.1 °F 53% 30.51 in 10.0 mi SSE 5.8 mph - N/A   Clear
4:53 PM 39.9 °F 35.8 °F 26.1 °F 58% 30.50 in 10.0 mi SE 5.8 mph - N/A   Clear
5:53 PM 36.0 °F - 25.0 °F 64% 30.51 in 10.0 mi Calm Calm - N/A   Clear
6:53 PM 32.0 °F 27.5 °F 24.1 °F 73% 30.51 in 10.0 mi ESE 4.6 mph - N/A   Clear
7:53 PM 33.1 °F - 25.0 °F 72% 30.50 in 10.0 mi Calm Calm - N/A   Clear
8:53 PM 33.1 °F - 25.0 °F 72% 30.48 in 10.0 mi Calm Calm - N/A   Scattered Clouds
9:01 PM 32.0 °F - 24.8 °F 75% 30.46 in 10.0 mi Calm Calm - N/A   Mostly Cloudy
9:53 PM 33.1 °F - 27.0 °F 78% 30.47 in 10.0 mi Calm Calm - N/A   Overcast
10:53 PM 34.0 °F - 28.0 °F 79% 30.45 in 10.0 mi Calm Calm - N/A   Overcast
11:53 PM 35.1 °F 32.2 °F 28.0 °F 76% 30.45 in 9.0 mi North 3.5 mph - N/A   Overcast